San Diego Classic - Holiday Cup - Inventory

Station: INVENTORY - T Race

Distance: 10 Miles    

Release: 16-Jul-2021 08:00

Weather Release:    Arrival:

Wind at Release:     Wind at Arrival:

Temp at Release: °    Temp at Arrival: °

Lofts: 119

Birds: 640

Clocked: 601

Good Luck to Everyone!
Drops Pos Breeder Pigeon Name Color Sex Ent Arrival Speed To Win Elg PdRaceAvg Speed
1 Quest Syndicate - TX 0142-AU21-QUES BC H 1 08:07:05.70 2480.620 00:00:00 Yes
2 Tony Chang - CA 0720-AU21-PAL BB H 1 08:07:06.80 2474.227 00:00:01 Yes
3 Team Phoenix - AZ 1929-AU21-ARZ BB H 1 08:07:10.30 2454.102 00:00:05 Yes
4 Christopher Loft - UT 0082-AU21-GS BBPD H 1 08:07:13.00 2438.799 00:00:07 Yes
5 Dudley/Moden - CA 1423-AU21-SD BB H 1 08:07:39.90 2296.151 00:00:34 Yes
6 Blankenship & Stork - 0001-AU21-Y2K BC H 1 08:07:41.80 2286.704 00:00:36 Yes
7 Santa Rosa Loft - 11698-AU21-JEDD RED H 1 08:08:12.50 2144.162 00:01:07 Yes
8 Tim Thompson - CA 0515-AU21-TOP BB H 1 08:08:43.20 2018.349 00:01:37 Yes
9 Evolution One Loft - UT 3539-AU21-OGN DKSP H 1 08:08:48.20 1999.243 00:01:42 Yes
10 Gus Medel - 1502-AU21-SD BBSP H 1 08:08:49.00 1996.219 00:01:43 Yes
11 Flying Mustangs - CA 0640-AU21-PAL BC H 1 08:09:02.30 1947.262 00:01:57 Yes
12 Team Phoenix - AZ 0010-AU21-TPHX BBWF H 2 08:09:21.10 1882.017 00:02:15 Yes
13 No Limit Loft - CA 34658-AU21-JEDD BC H 1 08:09:21.60 1880.342 00:02:16 Yes
14 Barragan Racing Loft - CA 1176-AU21-SD BC H 1 08:09:26.30 1864.736 00:02:21 Yes
15 Stealth Loft - UT 3249-AU21-OGN BB H 1 08:09:43.80 1808.839 00:02:38 Yes
16 Four For More - CA 0302-AU21-VIP BB H 1 08:10:07.50 1738.272 00:03:02 Yes
17 Alma Missiles Castro - AZ 24001-AU21-MISS BC H 1 08:10:12.00 1725.490 00:03:06 Yes
18 Flying Mustangs - CA 0601-AU21-PAL BB H 2 08:10:23.10 1694.752 00:03:17 Yes
19 Alas de Oro - NV 1022-IF21-E Ruger BB H 1 08:11:09.10 1578.239 00:04:03 Yes
20 Evolution One Loft - UT 0046-AU21-DYSO DC H 2 08:11:50.90 1485.441 00:04:45 Yes
21 Mike's Loft - MS 7956-AU21-SMRP BELAIRE BLEU BB H 1 08:12:15.50 1435.758 00:05:10 Yes
22 Hi-Cal Connection - CA 0866-AU21-HICA BBWF H 1 08:12:37.80 1393.508 00:05:32 Yes
23 Hugo Avila Loft - CA 0443-AU21-SD BB H 1 08:12:49.30 1372.676 00:05:44 Yes
24 Bob, Igor, & Joe - 6289-IF21-CC BB H 1 08:13:26.50 1309.361 00:06:21 Yes
25 Dave Hunsicken - 21322-AU21-SYV BB H 1 08:13:27.70 1307.416 00:06:22 Yes
26 Bird Love To Fly Loft - 0211-AU21-Y2K BB H 1 08:13:48.40 1274.746 00:06:43 Yes
27 Alas de Oro - NV 1002-IF21-E BB H 2 08:14:13.40 1237.403 00:07:08 Yes
28 Michael Groe - CA 2167-AU21-GROE 10752X242 BB H 1 08:14:37.40 1203.556 00:07:32 Yes
29 Victoria Falls World Challenge/Tbw - ZW 10494-AU21-VFWC BC H 1 08:14:44.50 1193.895 00:07:39 Yes
30 O And L De Vries - ON 4102-AU21-OL BB H 1 08:14:56.50 1177.914 00:07:51 Yes
31 Michael Groe - CA 2176-AU21-GROE 1209X2790 BB H 2 08:15:02.70 1169.824 00:07:57 Yes
32 Gene & Eddie - CA 0318-AU21-GENE BB H 1 08:16:12.20 1086.196 00:09:07 Yes
33 Los Banditos - CA 2478-AU21-LOSB BCWF H 1 08:16:16.90 1080.970 00:09:11 Yes
34 Christopher Loft - UT 0093-AU21-GS BC H 2 08:16:31.40 1065.160 00:09:26 Yes
35 Crazy Als Lofts - CO 5963-AU21-CRAZ BBSP H 1 08:16:34.20 1062.161 00:09:28 Yes
36 Irish Syndicate - AZ 44406-AU21-ARPU BC H 1 08:16:42.30 1053.577 00:09:37 Yes
37 No Limit Loft - CA 34675-AU21-JEDD BB H 2 08:18:32.20 949.470 00:11:26 Yes
38 Guillermo Siordia - CA 0237-AU21-PALO BBSP H 1 08:18:54.60 930.724 00:11:49 Yes
39 Edj Loft - CA 21122-AU21-EDJL RC H 1 08:19:51.90 885.980 00:12:46 Yes
40 Venn Family Loft - WY 11484-AU21-ARPU BB H 1 08:20:09.00 873.449 00:13:03 Yes
41 Bird Love To Fly Loft - 0206-AU21-Y2K BBSP H 2 08:20:24.90 862.111 00:13:19 Yes
42 Hawaiian Express - CA 0165-AU21-PONO BB H 1 08:20:37.80 853.127 00:13:32 Yes
43 Cano Family Loft - 1103-AU21-SD GRIZ H 1 08:21:13.60 829.146 00:14:08 Yes
44 Hugo Avila Loft - CA 0445-AU21-SD BB H 2 08:22:00.50 799.697 00:14:55 Yes
45 Barragan Racing Loft - CA 2430-IF21-E BBSP H 2 08:22:52.90 769.175 00:15:47 Yes
46 Genesis Syndicate Loft - AZ 0249-AU21-GENE BBPD H 1 08:23:01.20 764.553 00:15:55 Yes
47 De La O-Siino - CA 1092-AU21-COOK BB H 1 08:23:11.70 758.784 00:16:06 Yes
48 Jsrl Loft - 0249-AU21-JSRL BC H 1 08:23:44.20 741.469 00:16:38 Yes
49 Gene & Eddie - CA 0315-AU21-GENE BB H 2 08:24:39.90 713.562 00:17:34 Yes
50 El Dorado Lofts Canada - BC 21082-AU21-ELDO El Rocky BBWF H 1 08:24:43.40 711.878 00:17:38 Yes
51 Irish Syndicate - AZ 44419-AU21-ARPU DC H 2 08:24:43.90 711.638 00:17:38 Yes
52 Team Phoenix - AZ 0905-AU21-ARZ BCSP H 3 08:24:59.50 704.235 00:17:54 Yes
53 Rick Barker - CA 0215-AU21-VIP BBSP H 1 08:25:01.10 703.484 00:17:55 Yes
54 Alas de Oro - NV 1071-IF21-E BB H 3 08:25:01.50 703.297 00:17:56 Yes
55 Ancona Loft - CA 0408-AU21-ANCO BB H 1 08:25:15.50 696.800 00:18:10 Yes
56 Gus Medel - 1526-AU21-SD BB H 2 08:25:23.10 693.323 00:18:17 Yes
56 Christopher Loft - UT 0077-AU21-GS RC H 3 08:25:23.10 693.323 00:18:17 Yes
58 Nemeth Family Loft - CA 0851-AU21-NEME BC H 1 08:25:27.90 691.145 00:18:22 Yes
59 Barragan Racing Loft - CA 2427-IF21-E BB H 3 08:25:45.00 683.495 00:18:39 Yes
60 Jones Boys & Pj Loft - UT 1329-AU21-SLI BB H 1 08:26:03.30 675.494 00:18:58 Yes
61 O C F Syndicate - CA 1021-AU21-TOP DC H 1 08:26:32.40 663.150 00:19:27 Yes
62 Four For More - CA 0301-AU21-VIP BC H 2 08:27:00.40 651.691 00:19:55 Yes
63 Guillermo Siordia - CA 0218-AU21-PAL GRIZ H 2 08:27:42.50 635.188 00:20:37 Yes
64 Jsrl Loft - 0225-AU21-JSRL BCWF H 2 08:30:04.30 585.269 00:22:59 Yes
65 Crazy Als Lofts - CO 6061-AU21-CRAZ BBSP H 2 08:30:25.90 578.345 00:23:20 Yes
66 Christopher Loft - UT 0067-AU21-GS BB H 4 08:31:03.70 566.615 00:23:58 Yes
67 A P C Loft - TX 0161-AU21-APC BB H 1 08:31:06.40 565.795 00:24:01 Yes
68 Blankenship & Stork - 38302-AU21-AA BB H 2 08:31:12.70 563.892 00:24:07 Yes
69 Michael Groe - CA 0218-AU21-COM 385X2078 BB H 3 08:31:13.40 563.681 00:24:08 Yes
70 Stealth Loft - UT 3240-AU21-OGN BC H 2 08:31:25.10 560.182 00:24:19 Yes
71 Blankenship & Stork - 0027-AU21-Y2K BB H 3 08:31:35.70 557.050 00:24:30 Yes
72 Los Banditos - CA 2453-AU21-LOSB BB H 2 08:33:16.90 528.820 00:26:11 Yes
73 Milestone Loft - CA 0171-AU21-SD DC H 1 08:33:50.40 520.095 00:26:45 Yes
74 Genesis Syndicate Loft - AZ 0235-AU21-GENE BB H 2 08:33:53.80 519.225 00:26:48 Yes
75 Gus Medel - 0651-AU21-SD BB H 3 08:34:40.40 507.595 00:27:35 Yes
76 Four For More - CA 0309-AU21-VIP BB H 3 08:34:47.00 505.989 00:27:41 Yes
77 Rocky Mountain Racing - UT 21303-AU21-RMR BB H 1 08:34:47.70 505.820 00:27:42 Yes
78 Lionello & Gluck Bros. - 1018-AU21-COM BB H 1 08:36:19.60 484.493 00:29:14 Yes
79 Cano Family Loft - 1109-AU21-SD BB H 2 08:36:38.60 480.306 00:29:33 Yes
80 Hi-Cal Connection - CA 0897-AU21-HICA BB H 2 08:36:59.60 475.761 00:29:54 Yes
81 Humberto Franco - 17455-MX21-FMC BB H 1 08:37:02.60 475.119 00:29:57 Yes
82 Dan & Greg Coury - AZ 1252-AU21-PEGA BC H 1 08:38:25.90 457.956 00:31:20 Yes
83 El Dorado Lofts Canada - BC 21065-AU21-ELDO El Tiki BBWF H 2 08:38:27.70 457.598 00:31:22 Yes
84 Pairan Family Loft - 0054-AU21-LFO BC H 1 08:38:44.70 454.252 00:31:39 Yes
85 Nemeth Family Loft - CA 0836-AU21-NEME BC H 2 08:38:45.20 454.154 00:31:40 Yes
86 Los Banditos - CA 2465-AU21-LOSB BCWF H 3 08:40:35.60 433.569 00:33:30 Yes
87 Rick Barker - CA 0236-AU21-VIP BBSP H 2 08:42:45.40 411.632 00:35:40 Yes
88 Dennis Aycock - 0012-AU21-DEA BC H 1 08:42:58.90 409.477 00:35:53 Yes
89 O C F Syndicate - CA 1037-AU21-TOP DKSP H 2 08:43:17.80 406.498 00:36:12 Yes
90 El Dorado Lofts Canada - BC 21069-AU21-ELDO El Tweety BBSP H 3 08:43:18.50 406.388 00:36:13 Yes
91 Jsrl Loft - 0232-AU21-JSRL BBWF H 3 08:43:49.60 401.582 00:36:44 Yes
92 Peploft - CA 4051-AU21-FOYS BB H 1 08:44:00.90 399.864 00:36:55 Yes
93 Blankenship & Stork - 0010-AU21-Y2K BB H 4 08:44:48.40 392.799 00:37:43 Yes
94 Smib Loft - CA 1321-AU21-SD BB H 1 08:45:14.60 389.008 00:38:09 Yes
95 Alas de Oro - NV 1012-IF21-E BB H 4 08:45:30.50 386.742 00:38:25 Yes
96 Dennis Aycock - 0023-AU21-DEA BB H 2 08:45:45.30 384.657 00:38:40 Yes
97 Alas de Oro - NV 1007-IF21-E BC H 5 08:46:45.20 376.444 00:39:39 Yes
98 Hi-Cal Connection - CA 0867-AU21-HICA BB H 3 08:46:53.60 375.320 00:39:48 Yes
99 Double L Loft - TX 0328-AU21-TCDB J1977/LP20577 BCSP H 1 08:47:00.80 374.362 00:39:55 Yes
100 Gus Medel - 1529-AU21-SD BBSP H 4 08:49:42.90 354.018 00:42:37 Yes

There are 601 bird records

Note: These Race Results are unofficial and subject to change until verified by the Race Committee and declared final.